Pagrindinis puslapis
METAR-TAF:

METAR-TAF

Oro uostai :

Kuenka, Ekvadoras

platuma: 02-53-22S, ilguma: 078-59-04W, Aukštis: 2532 m

Dabartinis oras

Ataskaita buvo paskelbta 28 minutes, ne 20:00 UTC
Vėjas 10 kt iš Rytų
Temperatūra 20°C
Drėgmė 40%
Slėgis 1026 hPa
Matomumas 10 km arba daugiau
Su prošvaistėmis ne aukštis 4000 ft

METAR: SECU 222000Z 09010KT 9999 BKN040 20/06 Q1026

Laikas: 15:28 (20:28 UTC)


TAF: trūkstamas

Orai ataskaitas ir orų prognozės (METAR, TAF).

turimą stotys yra geltonos ir raudonos taškus žemėlapyje.

Perkelti pele per norėdami pamatyti stoties vardą.

Tada spustelėkite, norėdami matyti oro stebėjimo ir prognozės.

Norėdami pakeisti žemėlapį: spustelėkite ant žalios mygtukų su juodo kryžiaus žemyn,; žalią mygtuką su brūkšneliu, jei norite nutolinti; arba žalių rodyklių gretimoms žemėlapius.


METAR-TAF: